Location: *
(48.8667°N, 2.3331°E)
Time: 09:25:41
(UTC+00:00)

STARLINK-1225 - Pass Details

Date: 09 April 2020
Orbit: 549 x 550 km, 53.0° (Epoch: 25 May)

Event Time Altitude Azimuth Distance (km) Brightness Sun altitude
Rises 20:54:28 0° 294° (WNW) 2,724 8.5 -21.1°
Reaches altitude 10° 20:56:45 10° 289° (WNW) 1,827 7.2 -21.4°
Maximum altitude 21:00:45 48° 215° (SW) 727 4.1 -21.9°
Enters shadow 21:00:50 48° 211° (SSW) 728 4.0 -21.9°
